Regional Weather Roundup
Issued by NWS

Home | Current Version | Previous Version | Text Only | Print | Product List | Glossary Off
Versions: 1 2 3 4 5 6 7 8 9 10 11 12 13 14 15 16 17 18 19 20 21 22 23 24 25 26 27 28 29 30 31 32 33 34 35 36 37 38 39 40 41 42 43 44 45 46 47 48 49 50

000
ASUS43 KDMX 240001
RWRIA

WEATHER ROUNDUP FOR IOWA
NATIONAL WEATHER SERVICE DES MOINES IA
600 PM CST THU NOV 23 2017

NOTE: "FAIR" INDICATES FEW OR NO CLOUDS BELOW 12,000 FEET WITH NO
SIGNIFICANT WEATHER AND/OR OBSTRUCTIONS TO VISIBILITY.

* - THESE STATIONS ARE NOT NWS STATIONS...THUS NOT UNDER NWS
QUALITY CONTROL.  THEY ALSO DO NOT REPORT WEATHER SUCH
AS PRECIPITATION OR FOG.

IAZ001>003-012>014-020>022-031>034-043>046-240100-
   NORTHWEST IOWA

CITY           SKY/WX    TMP DP  RH WIND       PRES   REMARKS
CARROLL *      CLOUDY    48  34  57 S7        29.84S
CHEROKEE *     CLOUDY    46  33  62 S6        29.81S
DENISON *      PTCLDY    52  36  54 S7        29.86R
LE MARS *      CLOUDY    52  37  58 S10       29.78F
ORANGE CITY *  CLOUDY    50  37  62 S7        29.78F
SHELDON *      CLOUDY    48  34  57 S10       29.76F
SIOUX CITY     CLOUDY    49  37  63 E9        29.80S
6HR MIN TEMP:  48; 6HR MAX TEMP:  63;

SPENCER        CLOUDY    44  31  60 S9        29.80S
6HR MIN TEMP:  42; 6HR MAX TEMP:  56;

STORM LAKE *   CLOUDY    46  32  57 S10       29.82R
$$

IAZ055>058-069>071-079>083-090>094-240100-
   SOUTHWEST IOWA

CITY           SKY/WX    TMP DP  RH WIND       PRES   REMARKS
ATLANTIC *     CLOUDY    46  36  66 SW9       29.86F
AUDUBON *      CLOUDY    52  37  58 S7        29.86F
CLARINDA *       N/A     45  34  65 S3          N/A
COUNCIL BLFS * CLOUDY    52  39  62 S10       29.85F
CRESTON *      CLEAR     50  34  53 SW9       29.90S
HARLAN  *      MOCLDY    50  36  57 S5        29.89S HAZE
LAMONI         CLEAR     53  34  48 S7        29.91S
6HR MIN TEMP:  53; 6HR MAX TEMP:  61;

RED OAK *      PTCLDY    48  36  61 CALM      29.88F
SHENANDOAH *   CLEAR     52  36  54 S3        29.89S
$$

IAZ047>049-059>061-072>074-084-240100-
   CENTRAL IOWA

CITY           SKY/WX    TMP DP  RH WIND       PRES   REMARKS
AMES           CLEAR     39  31  72 S7        29.87F WCI  34
6HR MIN TEMP:  39; 6HR MAX TEMP:  54;

ANKENY *       CLEAR     45  32  61 CALM      29.89F
BOONE *        CLEAR     43  30  61 S9        29.85F
CHARITON *     CLEAR     45  32  61 S7        29.90F HAZE
DES MOINES     PTCLDY    46  31  55 SE7       29.89F
6HR MIN TEMP:  46; 6HR MAX TEMP:  54;

GRINNELL*      CLEAR     42  29  60 S6        29.91S
KNOXVILLE *    CLEAR     48  30  49 S5        29.89F
MARSHALLTOWN   CLEAR     44  30  57 S7        29.87F
6HR MIN TEMP:  43; 6HR MAX TEMP:  52;

NEWTON *       CLEAR     43  30  61 S5        29.89F
PELLA *        CLOUDY    44  29  56 S3        29.91F
PERRY *          N/A     44  29  57 S7        29.86F
$$

IAZ004>006-015-016-023>025-035-036-240100-
   NORTH CENTRAL IOWA

CITY           SKY/WX    TMP DP  RH WIND       PRES   REMARKS
ALGONA *       CLEAR     46  32  57 S13       29.81F
CLARION *      CLEAR     39  30  70 S10       29.84S WCI  32
ESTHERVILLE    CLOUDY    40  31  70 S9        29.79S WCI  34
6HR MIN TEMP:  40; 6HR MAX TEMP:  51;

FORT DODGE *   CLEAR     48  32  53 S6        29.83F
MASON CITY     CLEAR     36  26  67 S6        29.85F WCI  31
6HR MIN TEMP:  35; 6HR MAX TEMP:  48;

FOREST CITY *    N/A     36  30  80 S6        29.83F WCI  31
WEBSTER CITY * CLEAR     43  30  61 SE9       29.83S
IOWA FALLS *     N/A     39  29  68 S8        29.87F WCI  33
$$

IAZ007>011-017>019-026>030-037>042-050>054-066-240100-
   NORTHEAST IOWA

CITY           SKY/WX    TMP DP  RH WIND       PRES   REMARKS
CEDAR RAPIDS   CLEAR     40  28  62 CALM      29.90S
6HR MIN TEMP:  39; 6HR MAX TEMP:  52;

CHARLES CITY * CLEAR     37  25  60 S8        29.86S WCI  31
CLINTON *      CLEAR     39  26  59 S7        29.92F WCI  34
DECORAH *      CLEAR     39  25  56 S5        29.85S
DUBUQUE        CLEAR     33  25  72 SW5       29.89F WCI  29
6HR MIN TEMP:  33; 6HR MAX TEMP:  47;

MONTICELLO *   CLOUDY    32  25  74 CALM      29.90R
OELWEIN *      CLEAR     36  27  69 S8        29.88S WCI  29
WATERLOO       CLEAR     35  25  66 S3        29.88S
6HR MIN TEMP:  35; 6HR MAX TEMP:  50;

$$

IAZ064-065-067-068-078-240100-
   EAST CENTRAL IOWA

CITY           SKY/WX    TMP DP  RH WIND       PRES   REMARKS
DAVENPORT      CLEAR     35  25  66 S6        29.94S WCI  30
6HR MIN TEMP:  34; 6HR MAX TEMP:  48;

IOWA CITY      CLEAR     40  28  62 CALM      29.93R
6HR MIN TEMP:  39; 6HR MAX TEMP:  53;

MT. PLEASANT * CLEAR     41  28  60 S3        29.93S
MUSCATINE *    CLEAR     37  28  70 S5        29.93R WCI  34
QUAD CITIES    CLEAR     33  25  72 CALM      29.92F
6HR MIN TEMP:  33; 6HR MAX TEMP:  50;

$$

IAZ062-063-075>077-085>089-095>099-240100-
   SOUTHEAST IOWA

CITY           SKY/WX    TMP DP  RH WIND       PRES   REMARKS
BURLINGTON     CLEAR     40  30  67 CALM      29.93S
6HR MIN TEMP:  40; 6HR MAX TEMP:  51;

FAIRFIELD *    CLEAR     41  28  60 SW3       29.92R
FORT MADISON * CLEAR     45  30  57 CALM      29.94S
KEOKUK *       CLEAR     43  30  61 CALM      29.93S
OSKALOOSA *      N/A     43  30  59 S3        29.92S
OTTUMWA        CLEAR     42  30  62 S3        29.92R
6HR MIN TEMP:  42; 6HR MAX TEMP:  54;

WASHINGTON *   CLEAR     39  28  65 SW5       29.94R
$$

ABBREVIATIONS USED IN REMARKS
   TC - TEMPERATURES IN CELSIUS
  WCI - WIND CHILL INDEX
   HX - HEAT INDEX
  VSB - VISIBILITY
$$




USA.gov is the U.S. government's official web portal to all federal, state and local government web resources and services.